JUGNU

Last updated on Sun Sep 20 2026 00:03:12 GMT+0000 (Coordinated Universal Time)

1 37839U 11058B 26261.97317367 .00000378 00000+0 57931-4 0 9991 2 37839 19.9601 98.6261 0018563 32.4006 124.0056 14.13798990772317
UTC large
Height (km)
Speed (km/s)
/
Latitude / Longitude
Inclination (degrees)
Orbital Period (minutes)
Azimuth
Elevation
Range (km)
Doppler Factor

Next 0 passes for location: London (51.5072 / 0.1276)

No passes found over London.
JUGNU